[[{"header":{"parameterUnit":"m.s-1","parameterCategory":1,"la1":30.2991,"la2":30.254,"lo1":-89.0895,"lo2":-89.0444,"dy":0.0017,"dx":0.0017,"nx":28,"ny":28,"refTime":"2023-08-22T09:00:00:Z","depth":0,"parameterNumber":2,"parameterNumberName":"U-component_of_WINDS"},"data":[0,0,0,0,0,0,0,0,0,0,0,0,0,0,0,0,0,0,0,0,0,0,0,0,0,0,0,0,0,0,0,0,0,0,0,0,0,0,0,0,0,0,0,0,0,0,0,0,0,0,0,0,0,0,0,0,0,0,0.2043,0.2045,0,0.2214,0.2216,0.2217,0.2257,0.2256,0.2255,0.2254,0.2432,0.2438,0.2444,0,0,0,0,0,0,0,0,0,0,0,0,0,0.1753,0.1759,0.2043,0.2045,0.2047,0.2213,0.2216,0.2218,0.2258,0.2256,0.2255,0.2253,0.243,0.2437,0.2444,0,0,0,0,0,0,0,0,0,0,0,0,0,0.1897,0.176,0.2043,0.2087,0.2093,0.2213,0.2216,0.2219,0.2258,0.2256,0.2254,0.2253,0.2428,0.2437,0.2445,0.2535,0,0,0.2472,0.2476,0,0,0,0,0,0,0,0,0.1889,0.1908,0.2078,0.2084,0.2091,0.2212,0.2179,0.2325,0.2258,0.2195,0.2254,0.2252,0.2361,0.2375,0.2411,0.2543,0.2551,0.2473,0.2478,0.2482,0.2484,0,0,0,0,0,0,0,0.1879,0.1901,0.2111,0.2081,0.2088,0.2099,0.2117,0.2207,0.2286,0.2201,0.2204,0.2223,0.2364,0.2402,0.2415,0.2553,0.2473,0.248,0.2486,0.2489,0.2764,0.2766,0,0,0,0,0,0,0.1861,0.1892,0.2105,0.2116,0.1983,0.2105,0.2126,0.2175,0.2285,0.23,0.2225,0.2225,0.2388,0.2405,0.2422,0.2531,0.2482,0.249,0.2495,0.2762,0.2764,0.2766,0,0,0,0,0,0,0.1854,0.188,0.2098,0.2005,0.2034,0.2112,0.2167,0.2179,0.2218,0.2303,0.2318,0.2249,0.2388,0.2409,0.2505,0.2538,0.2494,0.2502,0.2759,0.2762,0.2765,0.2752,0,0,0,0,0,0,0.1846,0.1877,0.1912,0.2005,0.2038,0.2179,0.2169,0.2184,0.2233,0.2234,0.233,0.2344,0.2388,0.2492,0.2514,0.255,0.2509,0.2757,0.2761,0.2764,0.275,0.2755,0.2758,0,0,0,0,0,0.1836,0.1903,0.1913,0.1939,0.2083,0.218,0.2199,0.2247,0.2235,0.227,0.2325,0.2341,0.2531,0.2501,0.2527,0.2565,0.2755,0.276,0.2764,0.2748,0.2754,0.2758,0,0,0,0,0,0,0.1813,0.1916,0.1929,0.2028,0.2095,0.2187,0.2233,0.2251,0.2324,0.2323,0.2379,0.2401,0.2492,0.2539,0.2504,0.2656,0.2643,0.2652,0.2622,0.2628,0.2632,0.2619,0.2516,0,0,0,0,0,0.1819,0.1889,0.1976,0.2055,0.2088,0.2154,0.2199,0.2229,0.2301,0.233,0.2391,0.2461,0.2536,0.2585,0.2659,0.2757,0.2778,0.2796,0.28,0.2803,0.2811,0.2863,0.2872,0.2781,0.2781,0.2781,0,0,0.1834,0.1899,0.194,0.2052,0.2107,0.2178,0.2178,0.2254,0.2307,0.2342,0.2435,0.2482,0.2564,0.266,0.2706,0.2702,0.284,0.2809,0.281,0.2817,0.2869,0.2877,0.2885,0.2784,0.2784,0.2783,0,0,0.1896,0.1952,0.2023,0.2078,0.2161,0.2204,0.2221,0.231,0.2342,0.2436,0.2462,0.2527,0.2656,0.2712,0.2757,0.2837,0.2854,0.2859,0.2881,0.2931,0.2938,0.2945,0.2972,0.2981,0.2867,0.2867,0.2867,0,0.1903,0.2011,0.2058,0.2131,0.2179,0.2212,0.2284,0.2335,0.2438,0.247,0.2464,0.2624,0.2682,0.279,0.2809,0.2845,0.2865,0.2849,0.2933,0.294,0.2947,0.2973,0.2983,0.2867,0.2867,0.2867,0.2867,0,0.2015,0.2088,0.2136,0.2232,0.2286,0.2358,0.2416,0.2464,0.2489,0.2533,0.2627,0.2697,0.2784,0.2812,0.2839,0.2924,0.2918,0.2922,0.291,0.2955,0.298,0.2991,0.2867,0.2867,0.2867,0.2867,0,0,0.2069,0.2188,0.2205,0.2247,0.234,0.2398,0.2471,0.2554,0.2594,0.2664,0.2726,0.2832,0.2835,0.2886,0.2919,0.2963,0.3019,0.2961,0.2964,0.2968,0.3115,0.311,0.3121,0.3031,0.3033,0.3035,0.3107,0,0.2141,0.2272,0.2315,0.2423,0.2491,0.2521,0.2585,0.2648,0.269,0.2754,0.2801,0.2875,0.2874,0.2905,0.295,0.3002,0.3049,0.2998,0.3089,0.3091,0.3066,0.3135,0.3132,0.3197,0.3118,0.3119,0.3121,0,0.2243,0.2311,0.2426,0.2507,0.2537,0.2593,0.2671,0.2732,0.2804,0.2831,0.2887,0.2915,0.2992,0.2975,0.3081,0.3045,0.3084,0.3115,0.3119,0.3129,0.3108,0.3145,0.3219,0.3228,0.3137,0.3136,0.3134,0,0.2269,0.239,0.2473,0.2509,0.2606,0.2645,0.2687,0.2757,0.2803,0.2872,0.2902,0.298,0.3022,0.3081,0.3129,0.3113,0.323,0.3218,0.3255,0.3253,0.3278,0.3276,0.3358,0.3305,0.3305,0.3305,0.3304,0,0.2344,0.2413,0.2485,0.2537,0.2613,0.2662,0.2737,0.2781,0.2843,0.2903,0.2935,0.299,0.3051,0.3114,0.3153,0.3233,0.3253,0.3277,0.3286,0.3273,0.327,0.33,0.3296,0.3307,0.3307,0.3306,0.3306,0,0.2386,0.2438,0.253,0.2613,0.2636,0.2689,0.276,0.2811,0.2853,0.2928,0.2949,0.3016,0.3092,0.3146,0.3245,0.327,0.3356,0.3366,0.3331,0.3336,0.3369,0.3364,0.3473,0.3488,0.3425,0.3426,0.3426,0,0.2431,0.2483,0.2571,0.2613,0.2655,0.2722,0.2768,0.2818,0.2865,0.2949,0.2989,0.3067,0.3132,0.3251,0.3309,0.3384,0.3395,0.3427,0.3407,0.3391,0.3394,0.3389,0.3394,0.343,0.3431,0.3431,0.3432,0,0.2503,0.2525,0.2591,0.2664,0.2719,0.278,0.2841,0.2873,0.2933,0.2985,0.3062,0.3112,0.321,0.3287,0.3366,0.341,0.3431,0.3437,0.345,0.3437,0.3414,0.3425,0.3338,0.3435,0.3435,0.3434,0.3434,0.3434,0.2547,0.2594,0.2662,0.2734,0.2784,0.284,0.2891,0.2938,0.3003,0.3086,0.3111,0.3191,0.3259,0.3368,0.3412,0.3475,0.3473,0.3491,0.3496,0.3499,0.3498,0.3404,0.349,0.349,0.349,0.349,0.349,0,0.262,0.2664,0.2729,0.2812,0.2868,0.2881,0.2948,0.2994,0.3063,0.3124,0.3186,0.3273,0.3346,0.3409,0.3484,0.3522,0.3533,0.354,0.3538,0.3547,0.3496,0.3477,0.353,0.353,0.353,0.353,0.353,0.353,0.2664,0.2744,0.2773,0.2878,0.2923,0.2999,0.3036,0.3088,0.3136,0.3232,0.3292,0.3331,0.3393,0.3472,0.354,0.3556,0.3582,0.3586,0.3605,0.3556,0.3551,0.3547,0.3529,0.3592,0.3592,0.3651,0.3651,0.3652]},{"header":{"parameterUnit":"m.s-1","parameterCategory":1,"la1":30.2991,"la2":30.254,"lo1":-89.0895,"lo2":-89.0444,"dy":0.0017,"dx":0.0017,"nx":28,"ny":28,"refTime":"2023-08-22T09:00:00:Z","depth":0,"parameterNumber":3,"parameterNumberName":"V-component_of_WINDS"},"data":[0,0,0,0,0,0,0,0,0,0,0,0,0,0,0,0,0,0,0,0,0,0,0,0,0,0,0,0,0,0,0,0,0,0,0,0,0,0,0,0,0,0,0,0,0,0,0,0,0,0,0,0,0,0,0,0,0,0,2.825,2.825,0,2.8222,2.8222,2.8221,2.8185,2.8184,2.8183,2.8183,2.8151,2.8151,2.8151,0,0,0,0,0,0,0,0,0,0,0,0,0,2.8266,2.8266,2.825,2.825,2.8249,2.8222,2.8222,2.8221,2.8185,2.8184,2.8183,2.8183,2.8151,2.8151,2.8151,0,0,0,0,0,0,0,0,0,0,0,0,0,2.825,2.8266,2.825,2.8228,2.8226,2.8222,2.8222,2.8221,2.8185,2.8184,2.8183,2.8182,2.8151,2.8151,2.8151,2.8166,0,0,2.8149,2.8149,0,0,0,0,0,0,0,0,2.8251,2.825,2.8231,2.8229,2.8227,2.8206,2.8215,2.8202,2.8185,2.82,2.8183,2.8182,2.817,2.8168,2.8165,2.8164,2.8163,2.8149,2.8149,2.8149,2.8149,0,0,0,0,0,0,0,2.8252,2.8251,2.8239,2.8231,2.8228,2.8217,2.8214,2.8213,2.819,2.8199,2.8196,2.8194,2.8168,2.8165,2.8164,2.8162,2.8149,2.8149,2.8149,2.8148,2.8167,2.8167,0,0,0,0,0,0,2.8257,2.8252,2.824,2.8238,2.8237,2.8218,2.8214,2.8213,2.819,2.8186,2.8194,2.8192,2.8166,2.8164,2.8162,2.8174,2.8149,2.8148,2.8148,2.8166,2.8167,2.8168,0,0,0,0,0,0,2.8258,2.8257,2.8241,2.8244,2.8241,2.8218,2.8218,2.8213,2.821,2.8187,2.8182,2.8195,2.8165,2.8163,2.8164,2.8173,2.8148,2.8148,2.8165,2.8166,2.8167,2.8202,0,0,0,0,0,0,2.8259,2.8257,2.8264,2.8245,2.8241,2.8245,2.8219,2.8213,2.821,2.8206,2.8187,2.8182,2.8165,2.8165,2.8164,2.8172,2.8147,2.8164,2.8166,2.8167,2.8199,2.8204,2.8207,0,0,0,0,0,2.8259,2.8276,2.8265,2.8264,2.825,2.8246,2.8243,2.8224,2.8211,2.8216,2.82,2.8183,2.8173,2.8165,2.8164,2.8172,2.8163,2.8165,2.8167,2.8198,2.8203,2.8207,0,0,0,0,0,0,2.8297,2.8273,2.8261,2.8272,2.8261,2.824,2.8246,2.823,2.8223,2.822,2.8194,2.819,2.8193,2.8183,2.8175,2.8182,2.8165,2.8166,2.8189,2.8194,2.8198,2.8199,2.8147,0,0,0,0,0,2.8307,2.8307,2.8285,2.8296,2.8291,2.827,2.8267,2.8252,2.824,2.8235,2.822,2.8207,2.82,2.8197,2.819,2.8198,2.8191,2.8202,2.8206,2.821,2.8211,2.821,2.8213,2.8173,2.8173,2.8173,0,0,2.8326,2.8313,2.8315,2.8303,2.8293,2.8291,2.8266,2.8267,2.8264,2.8235,2.8234,2.8222,2.8206,2.821,2.821,2.8201,2.822,2.8212,2.8215,2.8214,2.8212,2.8215,2.8219,2.8174,2.8174,2.8174,0,0,2.8361,2.8352,2.8359,2.8349,2.8334,2.8318,2.832,2.83,2.8291,2.829,2.8267,2.8262,2.8253,2.8241,2.8234,2.8259,2.8241,2.8257,2.8277,2.8277,2.828,2.8282,2.8288,2.8291,2.8259,2.8259,2.8259,0,2.8387,2.8385,2.8364,2.8364,2.8358,2.8331,2.8336,2.8327,2.831,2.8305,2.8295,2.8279,2.8267,2.8265,2.8271,2.8267,2.8265,2.8259,2.8281,2.8284,2.8286,2.8291,2.8293,2.8261,2.8261,2.826,2.826,0,2.8415,2.8414,2.842,2.8404,2.8399,2.8401,2.8378,2.8375,2.836,2.8345,2.8342,2.8325,2.8313,2.8311,2.8297,2.8306,2.83,2.8286,2.8268,2.8292,2.8296,2.8298,2.8263,2.8263,2.8262,2.8262,0,0,2.8473,2.8444,2.8446,2.8436,2.8416,2.8414,2.8413,2.8401,2.8397,2.8385,2.8382,2.8372,2.8358,2.835,2.8333,2.8333,2.8349,2.8318,2.8317,2.8322,2.8354,2.8363,2.8366,2.8338,2.8338,2.8338,2.8354,0,2.8501,2.85,2.848,2.8483,2.8479,2.8452,2.8451,2.8437,2.8422,2.8414,2.8398,2.839,2.8374,2.8368,2.8366,2.8348,2.8355,2.8347,2.8332,2.8331,2.8335,2.8369,2.8379,2.8395,2.8356,2.8356,2.8357,0,2.8534,2.8524,2.8527,2.8503,2.85,2.85,2.8485,2.8479,2.8461,2.845,2.8439,2.842,2.8415,2.8399,2.8389,2.8384,2.8376,2.8365,2.8365,2.8362,2.8344,2.8364,2.84,2.8402,2.836,2.8359,2.8359,0,2.8572,2.8559,2.8557,2.8551,2.8524,2.8523,2.8512,2.8493,2.8486,2.8472,2.8466,2.8452,2.8444,2.8432,2.8409,2.84,2.84,2.8383,2.8388,2.8389,2.8389,2.8389,2.8422,2.8388,2.8388,2.8388,2.8387,0,2.8604,2.8606,2.8573,2.8573,2.8573,2.8548,2.8548,2.8534,2.8517,2.8511,2.8487,2.8481,2.8452,2.8442,2.8423,2.8416,2.8413,2.8402,2.8396,2.8403,2.8404,2.8396,2.8394,2.8388,2.8388,2.8388,2.8388,0,2.8645,2.8625,2.8621,2.8595,2.8588,2.8589,2.8566,2.8562,2.8546,2.8538,2.8534,2.8507,2.8494,2.8469,2.845,2.8437,2.8432,2.8425,2.8439,2.8435,2.8441,2.844,2.8469,2.847,2.8437,2.8437,2.8438,0,2.8666,2.8667,2.864,2.8635,2.8624,2.8616,2.8608,2.8582,2.8575,2.8552,2.8551,2.8536,2.8522,2.8502,2.8479,2.8462,2.8453,2.8464,2.845,2.8455,2.8449,2.8449,2.8447,2.8467,2.8467,2.8468,2.8468,0,2.8704,2.8692,2.8682,2.8668,2.8659,2.8646,2.8631,2.8628,2.8598,2.859,2.8577,2.8566,2.8545,2.8529,2.8509,2.8494,2.8475,2.8473,2.8472,2.8478,2.8485,2.8479,2.8445,2.8472,2.8471,2.8471,2.8471,2.8471,2.8733,2.8731,2.8711,2.87,2.8686,2.8673,2.8667,2.8649,2.8638,2.8619,2.8604,2.859,2.8569,2.854,2.8526,2.8514,2.8505,2.8506,2.8505,2.8505,2.8507,2.8488,2.851,2.851,2.851,2.851,2.851,0,2.8767,2.8752,2.8742,2.8722,2.8712,2.8696,2.8679,2.8671,2.866,2.8642,2.8628,2.8611,2.8595,2.857,2.8551,2.8545,2.8536,2.8541,2.854,2.8537,2.8517,2.8518,2.8549,2.8549,2.8549,2.8549,2.8549,2.8549,2.8783,2.8777,2.8763,2.8749,2.8735,2.8722,2.8713,2.8699,2.8684,2.8666,2.8652,2.8637,2.8615,2.8594,2.8577,2.857,2.8563,2.857,2.856,2.8542,2.8538,2.8535,2.8535,2.857,2.857,2.8581,2.8581,2.8581]}]]